[[{"header":{"parameterUnit":"m.s-1","parameterCategory":1,"la1":30.2991,"la2":30.254,"lo1":-89.0895,"lo2":-89.0444,"dy":0.0017,"dx":0.0017,"nx":28,"ny":28,"refTime":"2025-08-03T03:00:00:Z","depth":0,"parameterNumber":2,"parameterNumberName":"U-component_of_WINDS"},"data":[0,0,0,0,0,0,0,0,0,0,0,0,0,0,0,0,0,0,0,0,0,0,0,0,0,0,0,0,0,0,0,0,0,0,0,0,0,0,0,0,0,0,0,0,0,0,0,0,0,0,0,0,0,0,0,0,0,0,1.9551,1.9551,0,1.9566,1.9566,1.9566,1.9527,1.9525,1.9524,1.9523,1.9538,1.954,1.9541,0,0,0,0,0,0,0,0,0,0,0,0,0,1.9488,1.9489,1.9551,1.9551,1.9551,1.9566,1.9566,1.9566,1.9527,1.9525,1.9524,1.9522,1.9537,1.9539,1.9541,0,0,0,0,0,0,0,0,0,0,0,0,0,1.951,1.949,1.9551,1.9533,1.9532,1.9566,1.9566,1.9566,1.9527,1.9525,1.9523,1.9522,1.9537,1.9539,1.9541,1.9593,0,0,1.9549,1.955,0,0,0,0,0,0,0,0,1.9509,1.9513,1.9536,1.9535,1.9533,1.9542,1.9549,1.9575,1.9528,1.9529,1.9523,1.9521,1.9541,1.9543,1.955,1.9594,1.9594,1.9549,1.955,1.9551,1.9552,0,0,0,0,0,0,0,1.9507,1.9512,1.9557,1.9536,1.9534,1.9525,1.9526,1.9554,1.9545,1.9529,1.9526,1.9528,1.954,1.9548,1.955,1.9594,1.9549,1.9551,1.9552,1.9553,1.9682,1.9684,0,0,0,0,0,0,1.9508,1.9511,1.9556,1.9557,1.9516,1.9527,1.9529,1.9541,1.9545,1.9543,1.953,1.9526,1.9545,1.9547,1.955,1.9611,1.9551,1.9553,1.9555,1.968,1.9682,1.9685,0,0,0,0,0,0,1.9507,1.9513,1.9556,1.9533,1.9538,1.953,1.9545,1.9543,1.955,1.9546,1.9544,1.9539,1.9543,1.9547,1.9583,1.9611,1.9554,1.9557,1.9678,1.9681,1.9683,1.9733,0,0,0,0,0,0,1.9505,1.9512,1.9532,1.9534,1.9539,1.9588,1.9547,1.9544,1.9554,1.955,1.9554,1.9553,1.9542,1.9579,1.9585,1.9613,1.9558,1.9675,1.9679,1.9683,1.9729,1.9737,1.9745,0,0,0,0,0,1.9503,1.9545,1.9533,1.9539,1.9563,1.959,1.9593,1.958,1.9557,1.9576,1.9573,1.9553,1.9607,1.9583,1.9589,1.9619,1.9673,1.9678,1.9682,1.9725,1.9736,1.9745,0,0,0,0,0,0,1.9546,1.9545,1.9532,1.9575,1.9583,1.9583,1.9607,1.9591,1.9605,1.96,1.9583,1.9584,1.9624,1.9625,1.9598,1.9669,1.9636,1.9642,1.9667,1.9677,1.9685,1.9684,1.956,0,0,0,0,0,1.9561,1.9582,1.958,1.9619,1.9623,1.9615,1.9626,1.9615,1.9622,1.9625,1.9625,1.9633,1.9651,1.9664,1.9681,1.9729,1.9729,1.9752,1.976,1.9766,1.9772,1.9798,1.9808,1.97,1.9699,1.9699,0,0,1.9591,1.9593,1.9608,1.9628,1.9632,1.9655,1.9618,1.9643,1.966,1.9629,1.9663,1.9663,1.9671,1.9713,1.9731,1.9715,1.9802,1.9772,1.9777,1.9779,1.9803,1.9813,1.9823,1.9703,1.9702,1.9702,0,0,1.9658,1.9661,1.9694,1.97,1.9708,1.9702,1.971,1.9713,1.9712,1.9746,1.9723,1.9743,1.9775,1.9782,1.9789,1.986,1.9841,1.9865,1.9907,1.9932,1.9941,1.9948,1.9974,1.9983,1.9871,1.9871,1.9871,0,1.9694,1.9728,1.9713,1.9741,1.9751,1.9724,1.9757,1.9763,1.9776,1.9783,1.9765,1.9806,1.9809,1.9852,1.9869,1.9876,1.9885,1.9865,1.9941,1.9948,1.9955,1.9979,1.9988,1.9874,1.9874,1.9873,1.9873,0,1.9773,1.9797,1.9822,1.9836,1.9848,1.9879,1.9869,1.9883,1.9872,1.9868,1.9903,1.9906,1.9923,1.9933,1.9921,1.9975,1.9964,1.9944,1.991,1.9968,1.9991,2.0,1.9878,1.9877,1.9876,1.9875,0,0,1.9867,1.9872,1.9882,1.9888,1.9895,1.9913,1.9943,1.996,1.9973,1.9983,2.0007,2.0035,2.0016,2.0025,2.0014,2.0037,2.0093,2.0013,2.0013,2.0028,2.0152,2.0168,2.0179,2.008,2.0082,2.0083,2.0152,0,1.9933,1.9983,1.9971,2.0021,2.0043,2.0019,2.0044,2.0051,2.0049,2.0067,2.0064,2.0085,2.0058,2.0063,2.0084,2.0081,2.0117,2.0076,2.0103,2.0104,2.0102,2.019,2.0207,2.0271,2.016,2.0162,2.0163,0,2.0017,2.0031,2.0083,2.0087,2.0096,2.0119,2.0134,2.0152,2.016,2.0156,2.0166,2.0151,2.018,2.0147,2.0187,2.0159,2.0169,2.017,2.0172,2.0174,2.0137,2.0195,2.0291,2.0301,2.0176,2.0175,2.0174,0,2.008,2.0112,2.0148,2.0154,2.0159,2.0176,2.0179,2.0185,2.0196,2.021,2.0217,2.0233,2.0242,2.0255,2.0245,2.0222,2.0287,2.0253,2.0285,2.0285,2.03,2.0299,2.0399,2.0306,2.0306,2.0306,2.0306,0,2.0156,2.0189,2.0176,2.0198,2.0235,2.0221,2.0257,2.0257,2.0263,2.0284,2.0264,2.0284,2.027,2.0289,2.0281,2.0316,2.032,2.0318,2.0315,2.032,2.032,2.0326,2.0321,2.0308,2.0308,2.0307,2.0307,0,2.0233,2.0226,2.0263,2.0265,2.0267,2.0294,2.0296,2.0316,2.0312,2.034,2.0345,2.0339,2.0361,2.0352,2.0375,2.037,2.0414,2.0406,2.0412,2.0409,2.0442,2.0439,2.055,2.0564,2.0462,2.0463,2.0464,0,2.0281,2.0306,2.0312,2.0325,2.033,2.0351,2.0363,2.035,2.0363,2.0374,2.0393,2.0413,2.0429,2.0465,2.0462,2.048,2.0471,2.0509,2.0474,2.0478,2.0472,2.0471,2.0473,2.0516,2.0517,2.0518,2.0519,0,2.0368,2.0364,2.0381,2.0399,2.0413,2.0426,2.0437,2.0449,2.0437,2.0452,2.0475,2.0487,2.051,2.0531,2.0546,2.0549,2.0532,2.053,2.0539,2.0543,2.0546,2.0545,2.0431,2.0528,2.0527,2.0526,2.0526,2.0525,2.0432,2.0454,2.0461,2.0482,2.0489,2.05,2.0519,2.0518,2.0536,2.0555,2.0546,2.0572,2.058,2.0599,2.0605,2.0625,2.061,2.0622,2.0625,2.0628,2.0633,2.0543,2.0627,2.0627,2.0627,2.0627,2.0626,0,2.0518,2.0522,2.0541,2.0558,2.0574,2.0557,2.0568,2.0583,2.0607,2.0615,2.0631,2.0657,2.0676,2.0676,2.0694,2.071,2.0703,2.0715,2.0714,2.0715,2.0645,2.0636,2.0721,2.0721,2.0721,2.0721,2.0721,2.0721,2.0565,2.06,2.0597,2.0635,2.0639,2.0664,2.0672,2.0682,2.0689,2.0719,2.0736,2.0735,2.074,2.0759,2.0776,2.0775,2.0783,2.0798,2.0795,2.0729,2.072,2.0711,2.0702,2.08,2.08,2.0863,2.0864,2.0864]},{"header":{"parameterUnit":"m.s-1","parameterCategory":1,"la1":30.2991,"la2":30.254,"lo1":-89.0895,"lo2":-89.0444,"dy":0.0017,"dx":0.0017,"nx":28,"ny":28,"refTime":"2025-08-03T03:00:00:Z","depth":0,"parameterNumber":3,"parameterNumberName":"V-component_of_WINDS"},"data":[0,0,0,0,0,0,0,0,0,0,0,0,0,0,0,0,0,0,0,0,0,0,0,0,0,0,0,0,0,0,0,0,0,0,0,0,0,0,0,0,0,0,0,0,0,0,0,0,0,0,0,0,0,0,0,0,0,0,-0.0894,-0.0893,0,-0.0848,-0.0847,-0.0847,-0.0825,-0.0825,-0.0825,-0.0825,-0.0775,-0.0774,-0.0773,0,0,0,0,0,0,0,0,0,0,0,0,0,-0.0961,-0.096,-0.0894,-0.0893,-0.0893,-0.0848,-0.0847,-0.0846,-0.0825,-0.0825,-0.0825,-0.0825,-0.0776,-0.0774,-0.0773,0,0,0,0,0,0,0,0,0,0,0,0,0,-0.0925,-0.0959,-0.0894,-0.0876,-0.0874,-0.0848,-0.0847,-0.0846,-0.0825,-0.0825,-0.0825,-0.0825,-0.0776,-0.0774,-0.0772,-0.0759,0,0,-0.0766,-0.0765,0,0,0,0,0,0,0,0,-0.0927,-0.0922,-0.0879,-0.0877,-0.0875,-0.0842,-0.0853,-0.0817,-0.0825,-0.0843,-0.0825,-0.0825,-0.0797,-0.0794,-0.0785,-0.0757,-0.0755,-0.0766,-0.0765,-0.0764,-0.0763,0,0,0,0,0,0,0,-0.0929,-0.0924,-0.0875,-0.0879,-0.0876,-0.087,-0.0865,-0.0846,-0.0821,-0.0842,-0.084,-0.0835,-0.0796,-0.0787,-0.0783,-0.0754,-0.0766,-0.0764,-0.0763,-0.0762,-0.0714,-0.0714,0,0,0,0,0,0,-0.0935,-0.0927,-0.0877,-0.0874,-0.0902,-0.0869,-0.0863,-0.0853,-0.0821,-0.0816,-0.0835,-0.0834,-0.079,-0.0786,-0.0782,-0.0765,-0.0764,-0.0762,-0.0761,-0.0714,-0.0714,-0.0714,0,0,0,0,0,0,-0.0937,-0.0931,-0.0879,-0.09,-0.0893,-0.0868,-0.0856,-0.0852,-0.0842,-0.0816,-0.0811,-0.083,-0.079,-0.0784,-0.0765,-0.0763,-0.0761,-0.0759,-0.0714,-0.0714,-0.0714,-0.073,0,0,0,0,0,0,-0.0939,-0.0932,-0.0927,-0.09,-0.0892,-0.0864,-0.0856,-0.0851,-0.0839,-0.0838,-0.081,-0.0805,-0.079,-0.0768,-0.0763,-0.076,-0.0758,-0.0714,-0.0714,-0.0714,-0.073,-0.0731,-0.0732,0,0,0,0,0,-0.0941,-0.0932,-0.0926,-0.0921,-0.0885,-0.0863,-0.0859,-0.0841,-0.0839,-0.0834,-0.0817,-0.0806,-0.0764,-0.0767,-0.0761,-0.0757,-0.0714,-0.0714,-0.0714,-0.073,-0.0731,-0.0732,0,0,0,0,0,0,-0.0958,-0.0929,-0.0922,-0.0904,-0.0887,-0.086,-0.0852,-0.0843,-0.0825,-0.0824,-0.0803,-0.0797,-0.078,-0.0766,-0.077,-0.0743,-0.0738,-0.0737,-0.0752,-0.0753,-0.0754,-0.0757,-0.0756,0,0,0,0,0,-0.096,-0.0946,-0.092,-0.0907,-0.0899,-0.0878,-0.0867,-0.0856,-0.0836,-0.0829,-0.081,-0.0791,-0.0774,-0.0763,-0.0745,-0.0728,-0.0722,-0.0722,-0.0723,-0.0724,-0.0723,-0.0714,-0.0714,-0.0713,-0.0713,-0.0713,0,0,-0.0964,-0.0946,-0.0938,-0.0911,-0.0896,-0.0881,-0.0871,-0.0856,-0.0844,-0.0826,-0.0807,-0.0793,-0.0771,-0.0753,-0.0744,-0.0741,-0.0722,-0.0724,-0.0725,-0.0723,-0.0714,-0.0714,-0.0714,-0.0713,-0.0713,-0.0713,0,0,-0.0963,-0.0948,-0.0936,-0.0921,-0.0899,-0.0885,-0.0882,-0.0857,-0.0847,-0.0828,-0.0814,-0.08,-0.077,-0.0755,-0.0744,-0.0738,-0.0728,-0.0733,-0.0737,-0.0728,-0.0729,-0.0729,-0.0727,-0.0727,-0.0732,-0.0732,-0.0732,0,-0.097,-0.0947,-0.093,-0.0916,-0.0905,-0.0888,-0.0876,-0.0862,-0.0835,-0.0828,-0.0825,-0.0788,-0.0771,-0.075,-0.0749,-0.074,-0.0736,-0.0736,-0.073,-0.073,-0.073,-0.0728,-0.0727,-0.0733,-0.0733,-0.0733,-0.0733,0,-0.0957,-0.0942,-0.0935,-0.0911,-0.0898,-0.0885,-0.0865,-0.0855,-0.0845,-0.0831,-0.0812,-0.0792,-0.077,-0.0764,-0.0753,-0.0742,-0.0741,-0.0734,-0.0729,-0.0731,-0.0729,-0.0728,-0.0734,-0.0734,-0.0733,-0.0733,0,0,-0.0965,-0.0932,-0.093,-0.0919,-0.0894,-0.0882,-0.0868,-0.0848,-0.0839,-0.0821,-0.0809,-0.0785,-0.0779,-0.0766,-0.0753,-0.0746,-0.0744,-0.074,-0.074,-0.0742,-0.073,-0.0735,-0.0735,-0.0737,-0.0737,-0.0736,-0.0732,0,-0.096,-0.0936,-0.092,-0.0901,-0.0887,-0.0872,-0.086,-0.0843,-0.083,-0.0816,-0.0801,-0.0784,-0.0778,-0.077,-0.0762,-0.0746,-0.0741,-0.0746,-0.0725,-0.0725,-0.0731,-0.0733,-0.0738,-0.0735,-0.0731,-0.0731,-0.0731,0,-0.0952,-0.0936,-0.0916,-0.0893,-0.0887,-0.0876,-0.0857,-0.0844,-0.0825,-0.0815,-0.0802,-0.0789,-0.0774,-0.0771,-0.0749,-0.0753,-0.0743,-0.0734,-0.0734,-0.0731,-0.0728,-0.0731,-0.0734,-0.0733,-0.0729,-0.0729,-0.073,0,-0.096,-0.0933,-0.0918,-0.0909,-0.0882,-0.0875,-0.0864,-0.0845,-0.0834,-0.0817,-0.081,-0.0791,-0.0781,-0.0766,-0.0749,-0.0748,-0.073,-0.0725,-0.0722,-0.0722,-0.0718,-0.0719,-0.072,-0.0712,-0.0712,-0.0712,-0.0712,0,-0.0957,-0.0945,-0.0921,-0.0912,-0.0899,-0.0881,-0.0868,-0.0855,-0.0839,-0.0826,-0.0812,-0.0801,-0.0779,-0.0765,-0.0751,-0.0736,-0.0731,-0.0724,-0.072,-0.0725,-0.0726,-0.0718,-0.0718,-0.0712,-0.0712,-0.0712,-0.0712,0,-0.0963,-0.0947,-0.093,-0.0906,-0.09,-0.0891,-0.0871,-0.0861,-0.0848,-0.0833,-0.0828,-0.0807,-0.079,-0.0771,-0.0748,-0.0739,-0.0724,-0.0719,-0.0731,-0.0729,-0.0727,-0.0728,-0.0723,-0.0722,-0.0716,-0.0716,-0.0716,0,-0.0962,-0.0953,-0.093,-0.0921,-0.091,-0.0896,-0.0885,-0.0868,-0.0857,-0.0835,-0.0828,-0.081,-0.0795,-0.0768,-0.075,-0.0732,-0.0727,-0.0727,-0.0724,-0.073,-0.0727,-0.0728,-0.0727,-0.0728,-0.0728,-0.0728,-0.0728,0,-0.0963,-0.0955,-0.0941,-0.0924,-0.0912,-0.0897,-0.0882,-0.0876,-0.0855,-0.0844,-0.0827,-0.0815,-0.0792,-0.0774,-0.0754,-0.0742,-0.0732,-0.0729,-0.0727,-0.0732,-0.074,-0.0736,-0.0733,-0.0729,-0.0729,-0.0729,-0.0729,-0.0729,-0.0965,-0.0957,-0.0939,-0.0924,-0.0911,-0.0898,-0.0888,-0.0874,-0.0859,-0.0839,-0.083,-0.0813,-0.0795,-0.0767,-0.0755,-0.0742,-0.0738,-0.0736,-0.0735,-0.0735,-0.0737,-0.0742,-0.0738,-0.0738,-0.0738,-0.0738,-0.0738,0,-0.0965,-0.0953,-0.0939,-0.0919,-0.0907,-0.09,-0.0883,-0.0873,-0.0859,-0.0843,-0.0829,-0.0809,-0.0792,-0.0774,-0.0756,-0.0749,-0.0744,-0.0745,-0.0745,-0.0742,-0.074,-0.0744,-0.0749,-0.0749,-0.0749,-0.0749,-0.0749,-0.0749,-0.0963,-0.0949,-0.094,-0.0919,-0.0907,-0.0891,-0.0882,-0.087,-0.0857,-0.0837,-0.0823,-0.0811,-0.0794,-0.0775,-0.076,-0.0755,-0.0749,-0.0751,-0.0745,-0.0743,-0.0742,-0.0741,-0.0745,-0.075,-0.075,-0.0748,-0.0748,-0.0748]}]]